Weather History for KVBT - June, 2015

Change the Weather History Date:

Monday, June 22, 2015

  Actual Average Record
Temperature  
Mean Temperature 80 °F -  
Max Temperature 87 °F 84 °F 95 °F (1954)
Min Temperature 73 °F 63 °F 51 °F (1958)
Cooling Degree Days 15    
Growing Degree Days 30 (Base 50)    
Moisture  
Dew Point 70 °F    
Average Humidity 71    
Maximum Humidity 88    
Minimum Humidity 55    
Precipitation  
Precipitation 0.00 in - - ()
Sea Level Pressure  
Sea Level Pressure 30.05 in    
Wind  
Wind Speed 11 mph (SW)    
Max Wind Speed 21 mph    
Max Gust Speed 30 mph    
Visibility 10 miles    
Events      
Averages and records for this station are not official NWS values.
T = Trace of Precipitation, MM = Missing Value Source: NWS Daily Summary

Daily Weather History Graph

Daily Weather History Graph

Search for Another Location

Airport or City:

Trip Planner

Search our weather history database for the weather conditions in past years. The results will help you decide how hot, cold, wet, or windy it might be!

Date:

Astronomy

Jun. 22, 2015 Rise Set
Actual Time 5:59 AM CDT 8:38 PM CDT
Civil Twilight 5:29 AM CDT 9:08 PM CDT
Nautical Twilight 4:51 AM CDT 9:46 PM CDT
Astronomical Twilight 4:08 AM CDT 10:28 PM CDT
Moon 11:49 AM CDT (6/22) 12:04 AM CDT (6/22)
Length of Visible Light 15h 39m
Length of Day
14h 38m
Waxing Crescent, 34% of the Moon is Illuminated
Jun 22
Waxing Crescent
Jun 24
First Quarter
Jul 1
Full
Jul 8
Last Quarter
Jul 15
New

Hourly Weather History & Observations

Time (CDT) Temp. Heat Index Dew Point Humidity Pressure Visibility Wind Dir Wind Speed Gust Speed Precip Events Conditions
12:15 AM 75.2 °F - 68.0 °F 78% 30.05 in 10.0 mi SSW 10.4 mph - N/A   Clear
12:35 AM 75.2 °F - 68.0 °F 78% 30.05 in 10.0 mi SSW 6.9 mph - N/A   Clear
12:55 AM 75.2 °F - 68.0 °F 78% 30.06 in 10.0 mi SSW 8.1 mph - N/A   Clear
1:15 AM 75.2 °F - 68.0 °F 78% 30.06 in 10.0 mi SSW 10.4 mph - N/A   Clear
1:35 AM 75.2 °F - 68.0 °F 78% 30.05 in 10.0 mi SSW 6.9 mph - N/A   Clear
1:55 AM 73.4 °F - 68.0 °F 83% 30.05 in 10.0 mi SSW 9.2 mph - N/A   Partly Cloudy
2:15 AM 73.4 °F - 68.0 °F 83% 30.05 in 10.0 mi SSW 6.9 mph - N/A   Mostly Cloudy
2:35 AM 73.4 °F - 69.8 °F 88% 30.05 in 10.0 mi SSW 8.1 mph - N/A   Overcast
2:55 AM 73.4 °F - 68.0 °F 83% 30.05 in 10.0 mi SSW 6.9 mph - N/A   Scattered Clouds
3:15 AM 73.4 °F - 68.0 °F 83% 30.04 in 10.0 mi SSW 8.1 mph - N/A   Clear
3:35 AM 73.4 °F - 68.0 °F 83% 30.04 in 10.0 mi SSW 8.1 mph - N/A   Scattered Clouds
3:55 AM 73.4 °F - 68.0 °F 83% 30.04 in 10.0 mi SSW 8.1 mph - N/A   Scattered Clouds
4:15 AM 73.4 °F - 68.0 °F 83% 30.04 in 10.0 mi SSW 9.2 mph - N/A   Mostly Cloudy
4:35 AM 73.4 °F - 68.0 °F 83% 30.04 in 10.0 mi SSW 10.4 mph 16.1 mph N/A   Mostly Cloudy
4:55 AM 73.4 °F - 69.8 °F 88% 30.04 in 10.0 mi SSW 10.4 mph - N/A   Mostly Cloudy
5:15 AM 73.4 °F - 69.8 °F 88% 30.04 in 10.0 mi SSW 9.2 mph - N/A   Mostly Cloudy
5:35 AM 73.4 °F - 69.8 °F 88% 30.04 in 10.0 mi SSW 9.2 mph - N/A   Mostly Cloudy
5:55 AM 73.4 °F - 69.8 °F 88% 30.04 in 10.0 mi SSW 9.2 mph - N/A   Overcast
6:15 AM 73.4 °F - 69.8 °F 88% 30.04 in 10.0 mi SSW 10.4 mph - N/A   Overcast
6:35 AM 73.4 °F - 69.8 °F 88% 30.04 in 10.0 mi SSW 9.2 mph - N/A   Mostly Cloudy
6:55 AM 75.2 °F - 69.8 °F 83% 30.04 in 10.0 mi SSW 9.2 mph - N/A   Scattered Clouds
7:15 AM 75.2 °F - 69.8 °F 83% 30.04 in 10.0 mi SW 10.4 mph 16.1 mph N/A   Partly Cloudy
7:35 AM 75.2 °F - 69.8 °F 83% 30.04 in 10.0 mi SSW 11.5 mph 19.6 mph N/A   Partly Cloudy
7:55 AM 77.0 °F - 69.8 °F 78% 30.05 in 10.0 mi SW 9.2 mph 19.6 mph N/A   Partly Cloudy
8:15 AM 78.8 °F - 68.0 °F 69% 30.06 in 10.0 mi SW 17.3 mph 20.7 mph N/A   Partly Cloudy
8:35 AM 78.8 °F - 68.0 °F 69% 30.06 in 10.0 mi WSW 15.0 mph 24.2 mph N/A   Partly Cloudy
8:55 AM 78.8 °F - 69.8 °F 74% 30.06 in 10.0 mi SW 11.5 mph 21.9 mph N/A   Partly Cloudy
9:15 AM 78.8 °F - 69.8 °F 74% 30.07 in 10.0 mi SW 16.1 mph 24.2 mph N/A   Partly Cloudy
9:35 AM 80.6 °F 83.9 °F 69.8 °F 70% 30.08 in 10.0 mi SW 13.8 mph 21.9 mph N/A   Partly Cloudy
9:55 AM 80.6 °F 83.9 °F 69.8 °F 70% 30.07 in 10.0 mi SW 17.3 mph 26.5 mph N/A   Partly Cloudy
10:15 AM 80.6 °F 83.9 °F 69.8 °F 70% 30.08 in 10.0 mi WSW 17.3 mph 29.9 mph N/A   Partly Cloudy
10:35 AM 80.6 °F 83.9 °F 69.8 °F 70% 30.07 in 10.0 mi WSW 20.7 mph 28.8 mph N/A   Partly Cloudy
10:55 AM 82.4 °F 86.3 °F 69.8 °F 66% 30.08 in 10.0 mi SW 17.3 mph 23.0 mph N/A   Partly Cloudy
11:15 AM 82.4 °F 86.3 °F 69.8 °F 66% 30.07 in 10.0 mi SW 20.7 mph 28.8 mph N/A   Partly Cloudy
11:35 AM 82.4 °F 86.3 °F 69.8 °F 66% 30.06 in 10.0 mi SW 16.1 mph 26.5 mph N/A   Partly Cloudy
11:55 AM 84.2 °F 88.4 °F 69.8 °F 62% 30.06 in 10.0 mi SW 16.1 mph 24.2 mph N/A   Partly Cloudy
12:15 PM 84.2 °F 88.4 °F 69.8 °F 62% 30.06 in 10.0 mi SW 18.4 mph 25.3 mph N/A   Partly Cloudy
12:35 PM 84.2 °F 88.4 °F 69.8 °F 62% 30.07 in 10.0 mi SW 17.3 mph 24.2 mph N/A   Scattered Clouds
12:55 PM 84.2 °F 88.4 °F 69.8 °F 62% 30.07 in 10.0 mi WSW 15.0 mph 26.5 mph N/A   Mostly Cloudy
1:15 PM 86.0 °F 90.4 °F 69.8 °F 58% 30.06 in 10.0 mi SW 13.8 mph 28.8 mph N/A   Mostly Cloudy
1:35 PM 86.0 °F 91.8 °F 71.6 °F 62% 30.06 in 10.0 mi WSW 18.4 mph 26.5 mph N/A   Scattered Clouds
1:55 PM 87.8 °F 92.6 °F 69.8 °F 55% 30.05 in 10.0 mi WSW 20.7 mph 27.6 mph N/A   Partly Cloudy
2:15 PM 87.8 °F 93.8 °F 71.6 °F 58% 30.05 in 10.0 mi SW 17.3 mph 24.2 mph N/A   Scattered Clouds
2:35 PM 87.8 °F 93.8 °F 71.6 °F 58% 30.04 in 10.0 mi SW 17.3 mph 24.2 mph N/A   Scattered Clouds
2:55 PM 87.8 °F 93.8 °F 71.6 °F 58% 30.03 in 10.0 mi SW 17.3 mph 23.0 mph N/A   Scattered Clouds
3:15 PM 87.8 °F 93.8 °F 71.6 °F 58% 30.03 in 10.0 mi WSW 19.6 mph 24.2 mph N/A   Scattered Clouds
3:35 PM 87.8 °F 92.6 °F 69.8 °F 55% 30.04 in 10.0 mi SW 18.4 mph 25.3 mph N/A   Mostly Cloudy
3:55 PM 86.0 °F 90.4 °F 69.8 °F 58% 30.03 in 10.0 mi SW 16.1 mph 24.2 mph N/A   Mostly Cloudy
4:15 PM 87.8 °F 93.8 °F 71.6 °F 58% 30.03 in 10.0 mi SW 18.4 mph 25.3 mph N/A   Mostly Cloudy
4:35 PM 87.8 °F 92.6 °F 69.8 °F 55% 30.03 in 10.0 mi SW 13.8 mph 24.2 mph N/A   Mostly Cloudy
4:55 PM 86.0 °F 90.4 °F 69.8 °F 58% 30.03 in 10.0 mi WSW 18.4 mph 24.2 mph N/A   Scattered Clouds
5:15 PM 86.0 °F 90.4 °F 69.8 °F 58% 30.03 in 10.0 mi SW 15.0 mph 25.3 mph N/A   Mostly Cloudy
5:35 PM 87.8 °F 93.8 °F 71.6 °F 58% 30.02 in 10.0 mi SW 17.3 mph 21.9 mph N/A   Partly Cloudy
5:55 PM 87.8 °F 93.8 °F 71.6 °F 58% 30.02 in 10.0 mi SW 12.7 mph 19.6 mph N/A   Scattered Clouds
6:15 PM 86.0 °F 90.4 °F 69.8 °F 58% 30.02 in 10.0 mi SW 17.3 mph 20.7 mph N/A   Scattered Clouds
6:35 PM 84.2 °F 88.4 °F 69.8 °F 62% 30.02 in 10.0 mi SW 15.0 mph 21.9 mph N/A   Partly Cloudy
6:55 PM 84.2 °F 88.4 °F 69.8 °F 62% 30.02 in 10.0 mi SW 15.0 mph 20.7 mph N/A   Clear
7:15 PM 84.2 °F 88.4 °F 69.8 °F 62% 30.02 in 10.0 mi SW 13.8 mph 18.4 mph N/A   Clear
7:35 PM 84.2 °F 88.4 °F 69.8 °F 62% 30.02 in 10.0 mi SSW 11.5 mph - N/A   Clear
7:55 PM 82.4 °F 86.3 °F 69.8 °F 66% 30.03 in 10.0 mi SW 11.5 mph 17.3 mph N/A   Clear
8:15 PM 82.4 °F 86.3 °F 69.8 °F 66% 30.03 in 10.0 mi SW 10.4 mph - N/A   Clear
8:35 PM 80.6 °F 83.9 °F 69.8 °F 70% 30.03 in 10.0 mi SSW 6.9 mph - N/A   Clear
8:55 PM 80.6 °F 83.9 °F 69.8 °F 70% 30.03 in 10.0 mi SW 10.4 mph - N/A   Clear
9:15 PM 80.6 °F 83.9 °F 69.8 °F 70% 30.03 in 10.0 mi SSW 6.9 mph - N/A   Clear
9:35 PM 78.8 °F - 69.8 °F 74% 30.04 in 10.0 mi SW 8.1 mph - N/A   Clear
9:55 PM 78.8 °F - 69.8 °F 74% 30.04 in 10.0 mi SW 9.2 mph - N/A   Clear
10:15 PM 78.8 °F - 69.8 °F 74% 30.04 in 10.0 mi SW 9.2 mph - N/A   Clear
10:35 PM 78.8 °F - 69.8 °F 74% 30.04 in 10.0 mi SW 11.5 mph - N/A   Clear
10:55 PM 78.8 °F - 69.8 °F 74% 30.05 in 10.0 mi SW 8.1 mph 16.1 mph N/A   Clear
11:15 PM 78.8 °F - 69.8 °F 74% 30.05 in 10.0 mi SW 11.5 mph - N/A   Clear
11:35 PM 78.8 °F - 69.8 °F 74% 30.06 in 10.0 mi SW 10.4 mph - N/A   Clear
11:55 PM 78.8 °F - 69.8 °F 74% 30.06 in 10.0 mi SSW 6.9 mph - N/A   Clear